Mojave, CA

12:29 AM PDT on August 30, 2016 (GMT -0700)
Mojave

Weather History for KMHV - May, 2013

Change the Weather History Date:

Monday, May 27, 2013

  Actual Average Record
Temperature  
Mean Temperature 68 °F -  
Max Temperature 77 °F 84 °F 100 °F (1974)
Min Temperature 59 °F 57 °F 39 °F (1977)
Cooling Degree Days 3    
Growing Degree Days 18 (Base 50)    
Moisture  
Dew Point 37 °F    
Average Humidity 33    
Maximum Humidity 48    
Minimum Humidity 22    
Precipitation  
Precipitation 0.00 in - - ()
Sea Level Pressure  
Sea Level Pressure 29.91 in    
Wind  
Wind Speed 33 mph (West)    
Max Wind Speed 54 mph    
Max Gust Speed 70 mph    
Visibility 9 miles    
Events      
Averages and records for this station are not official NWS values.
T = Trace of Precipitation, MM = Missing Value Source: NWS Daily Summary

Daily Weather History Graph

Daily Weather History Graph

Search for Another Location

Airport or City:

Trip Planner

Search our weather history database for the weather conditions in past years. The results will help you decide how hot, cold, wet, or windy it might be!

Date:

Astronomy

May. 27, 2013 Rise Set
Actual Time 5:41 AM PDT 7:58 PM PDT
Civil Twilight 5:12 AM PDT 8:27 PM PDT
Nautical Twilight 4:37 AM PDT 9:03 PM PDT
Astronomical Twilight 3:58 AM PDT 9:41 PM PDT
Moon 10:44 PM PDT (5/27) 8:22 AM PDT (5/27)
Length of Visible Light 15h 14m
Length of Day
14h 17m
Waning Gibbous, 90% of the Moon is Illuminated
May 27
Waning Gibbous
May 31
Last Quarter
Jun 8
New
Jun 16
First Quarter
Jun 23
Full

Hourly Weather History & Observations

Time (PDT) Temp. Dew Point Humidity Pressure Visibility Wind Dir Wind Speed Gust Speed Precip Events Conditions
12:15 AM 62.6 °F 39.2 °F 42% 29.95 in 10.0 mi West 33.4 mph 49.5 mph N/A   Clear
12:35 AM 62.6 °F 39.2 °F 42% 29.93 in 10.0 mi West 39.1 mph 50.6 mph N/A   Clear
12:55 AM 62.6 °F 35.6 °F 37% 29.92 in 10.0 mi West 36.8 mph 56.4 mph N/A   Clear
1:15 AM 62.6 °F 37.4 °F 39% 29.91 in 8.0 mi West 42.6 mph 57.5 mph N/A   Clear
1:35 AM 62.6 °F 39.2 °F 42% 29.91 in 7.0 mi West 38.0 mph 59.8 mph N/A   Clear
1:55 AM 62.6 °F 39.2 °F 42% 29.90 in 9.0 mi West 41.4 mph 54.1 mph N/A   Clear
2:15 AM 62.6 °F 39.2 °F 42% 29.91 in 5.0 mi West 38.0 mph 63.3 mph N/A   Clear
2:35 AM 62.6 °F 39.2 °F 42% 29.89 in 5.0 mi West 43.7 mph 57.5 mph N/A   Clear
2:55 AM 62.6 °F 41.0 °F 45% 29.89 in 5.0 mi West 46.0 mph 57.5 mph N/A   Clear
3:15 AM 62.6 °F 39.2 °F 42% 29.90 in 5.0 mi West 43.7 mph 55.2 mph N/A   Clear
3:35 AM 60.8 °F 39.2 °F 45% 29.88 in 5.0 mi West 48.3 mph 58.7 mph N/A   Clear
3:55 AM 62.6 °F 39.2 °F 42% 29.89 in 5.0 mi West 46.0 mph 57.5 mph N/A   Clear
4:15 AM 60.8 °F 39.2 °F 45% 29.88 in 8.0 mi West 43.7 mph 56.4 mph N/A   Clear
4:35 AM 60.8 °F 39.2 °F 45% 29.88 in 9.0 mi West 39.1 mph 54.1 mph N/A   Clear
4:55 AM 60.8 °F 39.2 °F 45% 29.89 in 10.0 mi West 38.0 mph 49.5 mph N/A   Clear
5:15 AM 59.0 °F 39.2 °F 48% 29.89 in 10.0 mi West 38.0 mph 44.9 mph N/A   Clear
5:35 AM 59.0 °F 39.2 °F 48% 29.90 in 10.0 mi West 36.8 mph 47.2 mph N/A   Clear
5:55 AM 59.0 °F 39.2 °F 48% 29.90 in 10.0 mi West 36.8 mph 49.5 mph N/A   Clear
6:15 AM 60.8 °F 39.2 °F 45% 29.91 in 10.0 mi West 35.7 mph 43.7 mph N/A   Clear
6:35 AM 60.8 °F 39.2 °F 45% 29.91 in 10.0 mi WSW 35.7 mph 40.3 mph N/A   Clear
6:55 AM 62.6 °F 39.2 °F 42% 29.93 in 10.0 mi West 29.9 mph 42.6 mph N/A   Clear
7:15 AM 62.6 °F 37.4 °F 39% 29.95 in 10.0 mi NW 18.4 mph 24.2 mph N/A   Clear
7:35 AM 64.4 °F 37.4 °F 37% 29.95 in 10.0 mi West 23.0 mph 31.1 mph N/A   Clear
7:55 AM 66.2 °F 37.4 °F 35% 29.94 in 10.0 mi West 27.6 mph 35.7 mph N/A   Clear
8:15 AM 66.2 °F 39.2 °F 37% 29.95 in 10.0 mi West 24.2 mph 32.2 mph N/A   Clear
8:35 AM 68.0 °F 37.4 °F 33% 29.95 in 10.0 mi WNW 20.7 mph 31.1 mph N/A   Clear
8:55 AM 68.0 °F 39.2 °F 35% 29.96 in 10.0 mi West 25.3 mph 31.1 mph N/A   Clear
9:15 AM 69.8 °F 37.4 °F 31% 29.96 in 10.0 mi West 23.0 mph 32.2 mph N/A   Clear
9:35 AM 71.6 °F 39.2 °F 31% 29.96 in 10.0 mi West 25.3 mph 29.9 mph N/A   Clear
9:55 AM 71.6 °F 37.4 °F 29% 29.96 in 10.0 mi West 23.0 mph 29.9 mph N/A   Clear
10:15 AM 73.4 °F 37.4 °F 27% 29.96 in 10.0 mi West 23.0 mph 32.2 mph N/A   Clear
10:35 AM 73.4 °F 37.4 °F 27% 29.96 in 10.0 mi West 25.3 mph 31.1 mph N/A   Clear
10:55 AM 73.4 °F 37.4 °F 27% 29.96 in 10.0 mi West 25.3 mph 32.2 mph N/A   Clear
11:15 AM 75.2 °F 37.4 °F 25% 29.96 in 10.0 mi West 25.3 mph 31.1 mph N/A   Clear
11:35 AM 75.2 °F 37.4 °F 25% 29.96 in 10.0 mi West 26.5 mph 33.4 mph N/A   Clear
11:55 AM 75.2 °F 35.6 °F 24% 29.96 in 10.0 mi West 28.8 mph 33.4 mph N/A   Clear
12:15 PM 75.2 °F 37.4 °F 25% 29.95 in 10.0 mi WNW 26.5 mph 33.4 mph N/A   Clear
12:35 PM 75.2 °F 37.4 °F 25% 29.94 in 10.0 mi West 25.3 mph 35.7 mph N/A   Clear
12:55 PM 75.2 °F 37.4 °F 25% 29.94 in 10.0 mi West 33.4 mph 39.1 mph N/A   Clear
1:15 PM 75.2 °F 37.4 °F 25% 29.93 in 10.0 mi West 28.8 mph 38.0 mph N/A   Clear
1:35 PM 77.0 °F 35.6 °F 22% 29.92 in 10.0 mi WNW 24.2 mph 34.5 mph N/A   Clear
1:55 PM 77.0 °F 35.6 °F 22% 29.92 in 10.0 mi West 31.1 mph 40.3 mph N/A   Clear
2:15 PM 77.0 °F 35.6 °F 22% 29.91 in 10.0 mi West 33.4 mph 41.4 mph N/A   Clear
2:35 PM 77.0 °F 37.4 °F 24% 29.90 in 10.0 mi West 27.6 mph 41.4 mph N/A   Clear
2:55 PM 77.0 °F 37.4 °F 24% 29.89 in 10.0 mi West 29.9 mph 36.8 mph N/A   Clear
3:15 PM 77.0 °F 37.4 °F 24% 29.90 in 10.0 mi West 32.2 mph 38.0 mph N/A   Clear
3:35 PM 75.2 °F 37.4 °F 25% 29.90 in 10.0 mi West 31.1 mph 36.8 mph N/A   Clear
3:55 PM 75.2 °F 37.4 °F 25% 29.90 in 10.0 mi West 27.6 mph 39.1 mph N/A   Clear
4:15 PM 75.2 °F 37.4 °F 25% 29.87 in 10.0 mi West 40.3 mph 46.0 mph N/A   Clear
4:35 PM 73.4 °F 37.4 °F 27% 29.88 in 10.0 mi West 24.2 mph 32.2 mph N/A   Clear
4:55 PM 71.6 °F 37.4 °F 29% 29.87 in 9.0 mi West 34.5 mph 55.2 mph N/A   Clear
5:15 PM 71.6 °F 37.4 °F 29% 29.83 in 5.0 mi West 36.8 mph 61.0 mph N/A   Clear
5:35 PM 69.8 °F 37.4 °F 31% 29.82 in 0.5 mi West 46.0 mph 61.0 mph N/A   Mostly Cloudy
5:55 PM 68.0 °F 35.6 °F 30% 29.83 in 0.8 mi West 47.2 mph 70.2 mph N/A   Unknown
6:15 PM 66.2 °F 35.6 °F 32% 29.83 in 0.8 mi WNW 48.3 mph 67.9 mph N/A   Unknown
6:35 PM 66.2 °F 35.6 °F 32% 29.81 in 1.2 mi West 54.1 mph 62.1 mph N/A   Unknown
6:55 PM 66.2 °F 33.8 °F 30% 29.82 in 2.5 mi WNW 31.1 mph 62.1 mph N/A   Unknown
7:15 PM 66.2 °F 33.8 °F 30% 29.80 in 2.5 mi West 44.9 mph 58.7 mph N/A   Unknown
7:35 PM 66.2 °F 32.0 °F 28% 29.87 in 8.0 mi West 24.2 mph 41.4 mph N/A   Unknown
7:55 PM 66.2 °F 32.0 °F 28% 29.90 in 10.0 mi ESE 12.7 mph 19.6 mph N/A   Unknown
8:15 PM 66.2 °F 33.8 °F 30% 29.90 in 10.0 mi East 12.7 mph - N/A   Clear
8:35 PM 64.4 °F 33.8 °F 32% 29.91 in 10.0 mi SSW 3.5 mph - N/A   Unknown
8:55 PM 64.4 °F 33.8 °F 32% 29.90 in 10.0 mi NNW 8.1 mph - N/A   Clear
9:15 PM 64.4 °F 33.8 °F 32% 29.90 in 10.0 mi ENE 5.8 mph 19.6 mph N/A   Clear
9:35 PM 62.6 °F 33.8 °F 34% 29.91 in 10.0 mi South 12.7 mph 20.7 mph N/A   Clear
9:55 PM 62.6 °F 33.8 °F 34% 29.91 in 10.0 mi SSW 4.6 mph 18.4 mph N/A   Clear
10:15 PM 62.6 °F 35.6 °F 37% 29.91 in 10.0 mi SW 10.4 mph 20.7 mph N/A   Clear
10:35 PM 62.6 °F 35.6 °F 37% 29.91 in 10.0 mi WSW 13.8 mph 25.3 mph N/A   Clear
10:55 PM 64.4 °F 32.0 °F 30% 29.89 in 10.0 mi West 29.9 mph 46.0 mph N/A   Clear
11:15 PM 64.4 °F 32.0 °F 30% 29.89 in 10.0 mi West 29.9 mph 36.8 mph N/A   Clear
11:35 PM 64.4 °F 32.0 °F 30% 29.89 in 10.0 mi West 23.0 mph 29.9 mph N/A   Clear
11:55 PM 62.6 °F 35.6 °F 37% 29.87 in 10.0 mi West 25.3 mph 33.4 mph N/A   Clear